| time (UTC) | temp F | wind direction | speed MPH | gust MPH | rain 1hr in | rain 24hr in | rain mn in | humidity % | barometer mb |
| 20260905223016 | 65 | 0.0 | 0.0 | 0.00 | 0.00 | 0.00 | 85 | 1014.2 | |
| 20260905220017 | 66 | 0.0 | 2.0 | 0.00 | 0.00 | 0.00 | 82 | 1013.9 | |
| 20260905213017 | 68 | 0.0 | 4.0 | 0.00 | 0.00 | 0.00 | 76 | 1013.9 | |
| 20260905210016 | 72 | 0.0 | 2.0 | 0.00 | 0.00 | 0.00 | 70 | 1013.7 | |
| 20260905203016 | 72 | 0.0 | 0.0 | 0.00 | 0.00 | 0.00 | 68 | 1013.6 | |
| 20260905200038 | 72 | 0.0 | 0.0 | 0.00 | 0.00 | 0.00 | 67 | 1013.4 | |
| 20260905193016 | 72 | 0.0 | 2.0 | 0.00 | 0.00 | 0.00 | 69 | 1013.4 | |
| 20260905190018 | 71 | 0.0 | 0.0 | 0.00 | 0.00 | 0.00 | 69 | 1013.3 | |
| 20260905183036 | 70 | 0.0 | 0.0 | 0.00 | 0.00 | 0.00 | 71 | 1013.3 | |
| 20260905180036 | 69 | 0.0 | 5.0 | 0.00 | 0.00 | 0.00 | 74 | 1013.4 | |
| 20260905173016 | 70 | 270 | 1.0 | 7.0 | 0.00 | 0.00 | 0.00 | 73 | 1013.6 |
| 20260905170016 | 71 | 293 | 2.0 | 11.0 | 0.00 | 0.00 | 0.00 | 73 | 1013.8 |
| 20260905163016 | 69 | 270 | 1.0 | 8.0 | 0.00 | 0.00 | 0.00 | 75 | 1013.8 |
| 20260905160016 | 69 | 270 | 1.0 | 10.0 | 0.00 | 0.00 | 0.00 | 72 | 1013.9 |
| 20260905153016 | 67 | 270 | 1.0 | 7.0 | 0.00 | 0.00 | 0.00 | 75 | 1013.9 |
| 20260905150016 | 68 | 270 | 1.0 | 9.0 | 0.00 | 0.00 | 0.00 | 75 | 1014.0 |
| 20260905143016 | 68 | 293 | 1.0 | 6.0 | 0.00 | 0.00 | 0.00 | 74 | 1014.1 |
| 20260905140016 | 67 | 270 | 1.0 | 9.0 | 0.00 | 0.00 | 0.00 | 79 | 1014.0 |
| 20260905133016 | 64 | 0.0 | 8.0 | 0.00 | 0.00 | 0.00 | 86 | 1013.9 | |
| 20260905130017 | 63 | 0.0 | 5.0 | 0.00 | 0.00 | 0.00 | 88 | 1014.1 | |
| 20260905123016 | 61 | 0.0 | 6.0 | 0.00 | 0.00 | 0.00 | 93 | 1013.9 | |
| 20260905120015 | 60 | 0.0 | 0.0 | 0.00 | 0.00 | 0.00 | 95 | 1013.7 | |
| 20260905113015 | 60 | 0.0 | 0.0 | 0.00 | 0.00 | 0.00 | 95 | 1013.7 | |
| 20260905110016 | 60 | 0.0 | 0.0 | 0.00 | 0.00 | 0.00 | 95 | 1013.4 | |
| 20260905103015 | 60 | 0.0 | 0.0 | 0.00 | 0.00 | 0.00 | 95 | 1013.1 | |
| 20260905100015 | 60 | 0.0 | 0.0 | 0.00 | 0.01 | 0.00 | 95 | 1012.7 | |
| 20260905093018 | 60 | 0.0 | 0.0 | 0.00 | 0.01 | 0.00 | 95 | 1012.9 | |
| 20260905090017 | 60 | 0.0 | 0.0 | 0.00 | 0.01 | 0.00 | 95 | 1012.9 | |
| 20260905083017 | 60 | 0.0 | 0.0 | 0.00 | 0.01 | 0.00 | 95 | 1012.9 | |
| 20260905080017 | 59 | 0.0 | 0.0 | 0.00 | 0.01 | 0.00 | 95 | 1013.1 | |
| 20260905073017 | 59 | 0.0 | 0.0 | 0.00 | 0.01 | 0.00 | 95 | 1013.2 | |
| 20260905070017 | 58 | 0.0 | 0.0 | 0.00 | 0.01 | 0.00 | 94 | 1013.3 | |
| 20260905063037 | 58 | 0.0 | 0.0 | 0.00 | 0.01 | 0.00 | 93 | 1013.5 | |
| 20260905060017 | 59 | 0.0 | 0.0 | 0.00 | 0.01 | 0.00 | 93 | 1013.4 | |
| 20260905053018 | 59 | 0.0 | 0.0 | 0.00 | 0.01 | 0.00 | 92 | 1013.6 | |
| 20260905050017 | 59 | 0.0 | 0.0 | 0.00 | 0.10 | 0.00 | 91 | 1013.9 | |
| 20260905043017 | 60 | 0.0 | 0.0 | 0.00 | 0.16 | 0.00 | 89 | 1014.0 | |
| 20260905040017 | 60 | 0.0 | 0.0 | 0.00 | 0.17 | 0.17 | 88 | 1014.1 | |
| 20260905033037 | 61 | 0.0 | 0.0 | 0.00 | 0.17 | 0.17 | 87 | 1014.1 | |
| 20260905030017 | 61 | 0.0 | 0.0 | 0.00 | 0.17 | 0.17 | 85 | 1013.6 | |
| 20260905023017 | 63 | 0.0 | 0.0 | 0.00 | 0.17 | 0.17 | 86 | 1013.8 | |
| 20260905020100 | 64 | 0.0 | 0.0 | 0.00 | 0.17 | 0.17 | 84 | 1014.1 | |
| 20260905013016 | 64 | 0.0 | 0.0 | 0.00 | 0.17 | 0.17 | 83 | 1013.9 | |
| 20260905010017 | 64 | 0.0 | 0.0 | 0.00 | 0.17 | 0.17 | 83 | 1013.8 | |
| 20260905003056 | 64 | 0.0 | 0.0 | 0.00 | 0.17 | 0.17 | 81 | 1013.8 | |
| 20260905000017 | 66 | 0.0 | 0.0 | 0.00 | 0.17 | 0.17 | 78 | 1013.5 | |
| 20260904233016 | 69 | 0.0 | 0.0 | 0.00 | 0.17 | 0.17 | 74 | 1013.6 | |
| 20260904230037 | 71 | 0.0 | 4.0 | 0.00 | 0.17 | 0.17 | 69 | 1013.5 |